EW4565 Weather Reports


time (UTC)temp
C
wind
direction
speed
KPH
gust
KPH
rain 1hr
cm
rain 24hr
cm
rain mn
cm
humidity
%
barometer
mb
20260504174730 19 277 0.0 3.2 0.00 0.00 0.00 40 1011.4
20260504174229 19 278 0.0 4.8 0.00 0.00 0.00 42 1011.4
20260504173732 18 279 0.0 4.8 0.00 0.00 0.00 44 1011.6
20260504173230 18 279 0.0 3.2 0.00 0.00 0.00 46 1011.6
20260504172729 18 279 0.0 4.8 0.00 0.00 0.00 47 1011.7
20260504172229 18 280 0.0 4.8 0.00 0.00 0.00 46 1011.6
20260504171730 18 280 0.0 3.2 0.00 0.00 0.00 47 1011.7
20260504171231 18 280 0.0 3.2 0.00 0.00 0.00 47 1011.7
20260504171032 18 282 0.0 3.2 0.00 0.00 0.00 46 1011.7
20260504170228 18 283 0.0 1.6 0.00 0.00 0.00 48 1011.8
20260504160212 15 278 0.0 3.2 0.00 0.00 0.00 52 1012.0
20260504150705 12 276 0.0 1.6 0.00 0.00 0.00 57 1012.1
20260504150208 12 277 0.0 0.0 0.00 0.00 0.00 58 1012.1
20260504140701 10 277 0.0 0.0 0.00 0.00 0.00 68 1011.9
20260504140202 10 277 0.0 0.0 0.00 0.00 0.00 67 1011.8
20260504130659 9 277 0.0 0.0 0.00 0.00 0.00 66 1011.1
20260504130200 9 277 0.0 0.0 0.00 0.00 0.00 65 1011.1
20260504120156 10 277 0.0 0.0 0.00 0.00 0.00 63 1010.6
20260504110631 10 277 0.0 0.0 0.00 0.00 0.00 63 1010.3
20260504110132 10 276 0.0 0.0 0.00 0.00 0.00 62 1010.3
20260504100130 11 276 0.0 0.0 0.00 0.00 0.00 58 1009.8
20260504081625 12 277 0.0 0.0 0.00 0.00 0.00 53 1009.4
20260504081424 13 276 0.0 0.0 0.00 0.00 0.00 53 1009.2
20260504080624 13 277 0.0 0.0 0.00 0.00 0.00 52 1009.1
20260504080122 13 277 0.0 0.0 0.00 0.00 0.00 53 1009.2
20260504050603 16 276 0.0 0.0 0.00 0.00 0.00 48 1008.5
20260504050107 16 277 0.0 0.0 0.00 0.00 0.00 47 1008.5
20260504045608 16 277 0.0 0.0 0.00 0.00 0.00 47 1008.5
20260504045106 16 276 0.0 0.0 0.00 0.00 0.00 47 1008.5
20260504044603 16 276 0.0 0.0 0.00 0.00 0.00 48 1008.5
20260504044406 16 277 0.0 0.0 0.00 0.00 0.00 47 1008.4
20260504043601 16 277 0.0 0.0 0.00 0.00 0.00 47 1008.4
20260504043101 16 276 0.0 0.0 0.00 0.00 0.00 46 1008.4
20260504042602 16 277 0.0 0.0 0.00 0.00 0.00 47 1008.6
20260504042101 16 277 0.0 0.0 0.00 0.00 0.00 47 1008.6
20260504041859 16 277 0.0 0.0 0.00 0.00 0.00 46 1008.4
20260504041102 17 276 0.0 0.0 0.00 0.00 0.00 46 1008.4
20260504040601 17 276 0.0 0.0 0.00 0.00 0.00 46 1008.4
20260504035602 17 277 0.0 0.0 0.00 0.00 0.00 45 1008.2
20260504035106 17 276 0.0 0.0 0.00 0.00 0.00 44 1008.2
20260504034603 17 277 0.0 0.0 0.00 0.00 0.00 44 1008.2
20260504034358 18 277 0.0 0.0 0.00 0.00 0.00 44 1008.2
20260504033605 18 276 0.0 0.0 0.00 0.00 0.00 43 1008.1
20260504033104 18 276 0.0 0.0 0.00 0.00 0.00 42 1008.2
20260504032856 18 277 0.0 0.0 0.00 0.00 0.00 43 1008.0
20260504032104 19 277 0.0 0.0 0.00 0.00 0.00 42 1007.9
20260504031606 19 276 0.0 0.0 0.00 0.00 0.00 42 1007.9
20260504031104 20 277 0.0 0.0 0.00 0.00 0.00 40 1007.8
20260504030609 20 277 0.0 0.0 0.00 0.00 0.00 40 1007.8
20260504030221 21 276 0.0 0.0 0.00 0.00 0.00 39 1007.8
20260504030153 20 277 0.0 0.0 0.00 0.00 0.00 39 1007.8
20260504025102 21 277 0.0 0.0 0.00 0.00 0.00 38 1007.8
20260504024602 21 277 0.0 0.0 0.00 0.00 0.00 36 1007.8
20260504024410 22 276 0.0 0.0 0.00 0.00 0.00 34 1007.7
20260504023601 22 277 0.0 0.0 0.00 0.00 0.00 31 1007.7
20260504023405 22 277 0.0 0.0 0.00 0.00 0.00 30 1007.5
20260504022602 22 277 0.0 0.0 0.00 0.00 0.00 31 1007.7
20260504022103 23 276 0.0 3.2 0.00 0.00 0.00 30 1007.8
20260504021601 23 277 0.0 3.2 0.00 0.00 0.00 29 1007.7
20260504021100 23 278 0.0 4.8 0.00 0.00 0.00 29 1007.7
20260504020601 23 278 0.0 4.8 0.00 0.00 0.00 28 1007.7
20260504020403 23 280 0.0 3.2 0.00 0.00 0.00 28 1007.7
20260504015601 23 279 0.0 3.2 0.00 0.00 0.00 27 1007.7
20260504015103 24 280 0.0 4.8 0.00 0.00 0.00 26 1007.5
20260504014601 24 280 0.0 4.8 0.00 0.00 0.00 27 1007.7
20260504014101 24 280 0.0 4.8 0.00 0.00 0.00 26 1007.8
20260504013901 25 281 0.0 4.8 0.00 0.00 0.00 26 1007.8
20260504013358 25 281 0.0 4.8 0.00 0.00 0.00 25 1007.8
20260504012601 25 282 0.0 11.3 0.00 0.00 0.00 26 1007.8
20260504012102 25 282 1.6 11.3 0.00 0.00 0.00 25 1007.9
20260504011601 25 272 1.6 11.3 0.00 0.00 0.00 25 1008.0
20260504011101 25 277 0.0 3.2 0.00 0.00 0.00 27 1008.0
20260504010859 25 276 0.0 3.2 0.00 0.00 0.00 27 1008.0
20260504010101 25 277 0.0 3.2 0.00 0.00 0.00 27 1008.0
20260504005859 26 277 0.0 3.2 0.00 0.00 0.00 27 1008.1
20260504005101 25 277 0.0 4.8 0.00 0.00 0.00 27 1008.0
20260504004601 25 276 0.0 4.8 0.00 0.00 0.00 27 1008.0
20260504004104 25 276 0.0 4.8 0.00 0.00 0.00 27 1008.0
20260504003601 25 277 0.0 6.4 0.00 0.00 0.00 24 1008.0
20260504003101 25 276 1.6 6.4 0.00 0.00 0.00 24 1008.2
20260504002918 25 276 1.6 6.4 0.00 0.00 0.00 26 1008.3
20260504002106 25 270 1.6 6.4 0.00 0.00 0.00 24 1008.3
20260504001604 25 286 1.6 4.8 0.00 0.00 0.00 25 1008.3
20260504001105 25 286 1.6 4.8 0.00 0.00 0.00 25 1008.3
20260504000605 25 286 0.0 4.8 0.00 0.00 0.00 26 1008.5
20260504000106 25 285 0.0 4.8 0.00 0.00 0.00 26 1008.6
20260503235606 25 276 0.0 3.2 0.00 0.00 0.00 26 1008.6
20260503235105 25 276 0.0 4.8 0.00 0.00 0.00 27 1008.6
20260503234605 25 276 0.0 4.8 0.00 0.00 0.00 28 1008.7
20260503234105 25 277 1.6 6.4 0.00 0.00 0.00 28 1008.7
20260503233606 24 277 1.6 11.3 0.00 0.00 0.00 28 1008.8
20260503233105 24 272 1.6 11.3 0.00 0.00 0.00 28 1008.8
20260503232606 24 273 1.6 9.7 0.00 0.00 0.00 27 1008.8
20260503232105 24 270 1.6 9.7 0.00 0.00 0.00 26 1008.9
20260503231603 24 251 1.6 6.4 0.00 0.00 0.00 26 1009.0
20260503231103 24 248 1.6 6.4 0.00 0.00 0.00 26 1009.2
20260503230605 24 235 1.6 6.4 0.00 0.00 0.00 28 1009.1
20260503230105 24 233 1.6 9.7 0.00 0.00 0.00 27 1009.2
20260503225604 24 217 1.6 9.7 0.00 0.00 0.00 27 1009.4
20260503225410 23 264 1.6 9.7 0.00 0.00 0.00 29 1009.4
20260503224605 23 266 1.6 11.3 0.00 0.00 0.00 30 1009.5
20260503224219 23 231 1.6 6.4 0.00 0.00 0.00 28 1009.7
20260503224149 23 254 1.6 11.3 0.00 0.00 0.00 29 1009.6
20260503223104 23 221 1.6 9.7 0.00 0.00 0.00 30 1009.9
20260503222908 23 273 3.2 9.7 0.00 0.00 0.00 29 1010.0
20260503222105 23 264 3.2 11.3 0.00 0.00 0.00 30 1010.1
20260503221604 23 218 1.6 11.3 0.00 0.00 0.00 29 1010.2
20260503221105 23 261 1.6 11.3 0.00 0.00 0.00 29 1010.2
20260503220608 22 252 3.2 11.3 0.00 0.00 0.00 29 1010.2
20260503220410 22 272 1.6 9.7 0.00 0.00 0.00 28 1010.5
20260503215857 23 274 1.6 9.7 0.00 0.00 0.00 27 1010.6
20260503215105 22 251 1.6 4.8 0.00 0.00 0.00 29 1010.7
20260503214604 22 249 1.6 6.4 0.00 0.00 0.00 29 1010.7
20260503214105 22 248 1.6 6.4 0.00 0.00 0.00 28 1010.8
20260503213604 22 239 1.6 6.4 0.00 0.00 0.00 29 1010.9
20260503213106 22 228 1.6 6.4 0.00 0.00 0.00 30 1010.9
20260503212858 22 283 1.6 9.7 0.00 0.00 0.00 31 1010.9
20260503212222 22 256 1.6 9.7 0.00 0.00 0.00 30 1011.2
20260503212156 22 282 1.6 9.7 0.00 0.00 0.00 31 1011.1
20260503211106 22 249 1.6 11.3 0.00 0.00 0.00 31 1011.2
20260503210604 21 303 3.2 11.3 0.00 0.00 0.00 32 1011.3
20260503210105 21 286 3.2 9.7 0.00 0.00 0.00 32 1011.3
20260503205605 21 293 3.2 9.7 0.00 0.00 0.00 32 1011.4
20260503205107 21 275 3.2 12.9 0.00 0.00 0.00 33 1011.4
20260503204602 21 255 3.2 12.9 0.00 0.00 0.00 33 1011.4
20260503204101 21 239 3.2 11.3 0.00 0.00 0.00 32 1011.5
20260503203603 21 268 1.6 11.3 0.00 0.00 0.00 31 1011.5
20260503203101 21 310 1.6 11.3 0.00 0.00 0.00 32 1011.5
20260503202905 21 210 1.6 11.3 0.00 0.00 0.00 34 1011.7
20260503202102 20 285 3.2 11.3 0.00 0.00 0.00 34 1011.8
20260503201601 20 276 3.2 9.7 0.00 0.00 0.00 33 1011.9
20260503201103 20 270 3.2 9.7 0.00 0.00 0.00 33 1011.9
20260503200603 20 255 3.2 11.3 0.00 0.00 0.00 35 1012.0
20260503200101 20 251 3.2 11.3 0.00 0.00 0.00 34 1012.1
20260503195602 20 267 3.2 11.3 0.00 0.00 0.00 36 1012.2
20260503195100 20 272 3.2 12.9 0.00 0.00 0.00 35 1012.2
20260503194721 20 272 3.2 12.9 0.00 0.00 0.00 35 1012.3
20260503194654 20 295 3.2 12.9 0.00 0.00 0.00 34 1012.3
20260503193601 20 263 1.6 6.4 0.00 0.00 0.00 35 1012.3
20260503193102 19 262 1.6 4.8 0.00 0.00 0.00 34 1012.4
20260503192600 19 255 1.6 9.7 0.00 0.00 0.00 36 1012.5
20260503192100 18 261 1.6 9.7 0.00 0.00 0.00 37 1012.6
20260503191603 18 259 1.6 6.4 0.00 0.00 0.00 38 1012.8
20260503191101 18 256 1.6 11.3 0.00 0.00 0.00 36 1012.9
20260503190901 18 262 1.6 12.9 0.00 0.00 0.00 36 1012.9
20260503190101 18 223 1.6 12.9 0.00 0.00 0.00 39 1013.0
20260503185600 17 263 1.6 9.7 0.00 0.00 0.00 39 1013.2
20260503185213 17 266 3.2 12.9 0.00 0.00 0.00 40 1013.3
20260503185149 17 241 3.2 11.3 0.00 0.00 0.00 39 1013.2
20260503184100 17 279 3.2 12.9 0.00 0.00 0.00 43 1013.4
20260503183601 17 298 3.2 14.5 0.00 0.00 0.00 42 1013.5
20260503183102 17 245 3.2 14.5 0.00 0.00 0.00 42 1013.6
20260503182602 17 245 1.6 11.3 0.00 0.00 0.00 42 1013.8
20260503182103 17 291 1.6 9.7 0.00 0.00 0.00 45 1013.8
20260503181603 16 293 3.2 9.7 0.00 0.00 0.00 45 1013.9
20260503181102 16 312 3.2 11.3 0.00 0.00 0.00 44 1014.2
20260503180602 16 270 1.6 11.3 0.00 0.00 0.00 44 1014.2
20260503175601 16 274 1.6 9.7 0.00 0.00 0.00 44 1014.3